Home   Weather   Walsall   Past weeks

Flag for United Kingdom Past Weather in Walsall, England, United Kingdom — Yesterday and Last 2 Weeks

45 °F


Feels Like: 41 °F
Forecast: 46 / 53 °F
Wind: 7 mph from Northeast

Location: Birmingham / Airport

Current Time: Oct 24, 2016 at 4:29:51 AM

Latest Report: Oct 24, 2016 at 3:50 AM

Visibility: 10 mi

Pressure: 29.89 "Hg

Humidity: 100%

Dew Point: 45 °F

Location of WalsallLocation

Past Weather in Walsall — Graph


Walsall Temperature Yesterday

Maximum temperature yesterday: 52 °F (at 1:50 PM)
Minimum temperature yesterday: 39 °F (at 2:50 AM)
Average temperature yesterday: 46 °F

High & Low Weather Summary for the Past Weeks

High61 °F (Oct 16, 1:20 PM)100% (Oct 9, 4:20 AM)30.42 "Hg (Oct 9, 4:20 AM)
Low39 °F (Oct 23, 2:50 AM)54% (Oct 18, 1:50 PM)29.62 "Hg (Oct 15, 6:50 AM)
Average50 °F87%30.05 "Hg
* Reported Oct 9 2:20 AM — Oct 24 2:50 AM, Walsall, Weather by CustomWeather, © 2016

Note: Actual official high and low records may vary slightly from our data, if they occured in-between our weather recording intervals... More about our weather records


Walsall Weather History for the Previous 24 Hours

Scroll right to see more
Time TempWeatherWind HumidityBarometerVisibility
2:50 AM
Mon, Oct 24
45 °FClear.5 mph100%29.92 "Hg10 mi
2:20 AM45 °FClear.6 mph100%29.89 "Hg10 mi
1:50 AM43 °FClear.6 mph100%29.89 "Hg10 mi
1:20 AM43 °FClear.3 mph100%29.92 "Hg10 mi
12:50 AM43 °FClear.5 mph100%29.92 "Hg10 mi
12:20 AM45 °FClear.6 mph93%29.92 "Hg10 mi
11:50 PM
Sun, Oct 23
45 °FClear.6 mph100%29.89 "Hg10 mi
11:20 PM45 °FClear.7 mph100%29.89 "Hg10 mi
10:50 PM45 °FPassing clouds.7 mph100%29.89 "HgN/A
10:20 PM46 °FClear.7 mph93%29.89 "Hg10 mi
9:50 PM46 °FPassing clouds.9 mph87%29.89 "HgN/A
9:20 PM46 °FPassing clouds.9 mph87%29.89 "HgN/A
8:50 PM46 °FClear.9 mph87%29.89 "Hg10 mi
8:20 PM46 °FPassing clouds.9 mph87%29.89 "HgN/A
7:50 PM46 °FClear.12 mph87%29.86 "Hg10 mi
7:20 PM46 °FClear.7 mph87%29.86 "Hg10 mi
6:50 PM48 °FPassing clouds.8 mph82%29.89 "HgN/A
6:20 PM48 °FPassing clouds.8 mph82%29.89 "HgN/A
5:50 PM50 °FPassing clouds.10 mph71%29.86 "HgN/A
5:20 PM50 °FPassing clouds.9 mph67%29.86 "HgN/A
4:50 PM52 °FPassing clouds.14 mph62%29.86 "HgN/A
4:20 PM52 °FScattered clouds.12 mph67%29.86 "HgN/A
3:50 PM52 °FScattered clouds.14 mph67%29.86 "HgN/A
3:20 PM52 °FScattered clouds.13 mph72%29.89 "HgN/A
2:50 PM52 °FScattered clouds.12 mph72%29.89 "HgN/A
2:20 PM52 °FScattered clouds.13 mph77%29.89 "HgN/A
1:50 PM52 °FScattered clouds.12 mph77%29.89 "HgN/A
1:20 PM50 °FScattered clouds.10 mph88%29.92 "HgN/A
12:50 PM50 °FBroken clouds.13 mph88%29.92 "HgN/A
12:20 PM50 °FBroken clouds.14 mph82%29.92 "HgN/A
11:50 AM50 °FScattered clouds.12 mph88%29.95 "HgN/A
11:20 AM50 °FScattered clouds.13 mph88%29.92 "HgN/A
10:50 AM48 °FScattered clouds.10 mph94%29.92 "HgN/A
10:20 AM48 °FMostly cloudy.12 mph94%29.92 "HgN/A
9:50 AM48 °FMostly cloudy.9 mph94%29.92 "HgN/A
9:20 AM46 °FMostly cloudy.9 mph100%29.92 "Hg5 mi
8:50 AM46 °FMostly cloudy.9 mph100%29.92 "Hg4 mi
8:20 AM46 °FMostly cloudy.7 mph100%29.92 "Hg5 mi
7:50 AM45 °FFog.6 mph100%29.92 "Hg3 mi
7:20 AM45 °FFog.2 mph100%29.92 "Hg2 mi
6:50 AM43 °FFog.3 mph100%29.92 "Hg2 mi
6:20 AM43 °FFog.5 mph100%29.92 "Hg2 mi
5:50 AM41 °FFog.2 mph100%29.92 "Hg2 mi
5:20 AM41 °FFog.6 mph100%29.92 "Hg2 mi
4:50 AM41 °FFog.5 mph100%29.92 "Hg2 mi
4:20 AM41 °FFog.5 mph100%29.95 "Hg1 mi
Weather by CustomWeather, © 2016

See weather overviewHow to use our weather pages